#timestamp,LO_Frequency,Hit,StdDev 
1599004815.1,286047003.2,N
1599004835.8,286047002.5,N
1599004855.7,286047003.4,N
1599004875.5,286047005.2,N
1599004895.4,286047003.7,N
1599004915.2,286047004.2,N
1599004935.0,286047001.9,N
1599004935.9,286047001.9,N
1599004955.8,286047002.0,N
1599004975.6,286047003.7,N
1599004995.4,286047003.5,N
1599005015.3,286047001.6,N
1599005035.1,286047004.3,N
1599005055.9,286047002.3,N
1599005075.7,286047005.6,Y
1599005095.5,286047002.3,P
1599005115.4,286046999.7,P
1599005135.2,286047002.5,N
1599005155.0,286046999.7,N
1599005156.0,286046999.7,N
1599005175.8,286047002.5,N
1599005195.6,286047001.8,N
1599005215.5,286047002.5,N
1599005235.3,286047001.6,N
1599005255.1,286047004.0,Y
1599005275.9,286047002.3,P
1599005295.7,286046999.9,N
1599005315.6,286047002.8,N
1599005335.4,286046999.8,N
1599005355.2,286047002.7,N
1599005375.1,286047002.2,N
1599005376.0,286047002.2,N
1599005395.8,286046999.7,N
1599005415.6,286047002.5,N
1599005435.5,286047002.4,N
1599005455.3,286047001.4,N
1599005475.2,286047004.0,Y
1599005495.9,286046998.6,P
1599005515.7,286047001.2,N
1599005535.6,286046999.5,N
1599005555.4,286047000.5,N
1599005575.3,286047002.7,N
1599005595.1,286046998.9,N
1599005596.0,286046998.9,N
1599005615.8,286046999.4,N
1599005635.7,286047000.5,N
1599005655.5,286047002.8,N
1599005675.3,286047002.7,N
1599005695.2,286047001.2,N
1599005715.0,286046998.3,N
1599005715.9,286046998.3,N
1599005735.8,286046999.2,N
1599005755.6,286046996.6,N
1599005775.4,286047000.5,N
1599005795.3,286047000.2,N
1599005815.1,286046998.4,N
1599005835.8,286047002.5,N
1599005855.7,286047002.3,N
1599005875.5,286047001.5,N
1599005895.3,286047003.6,N
1599005915.2,286047003.3,N
1599005935.0,286047003.2,N
1599005935.9,286047003.2,N
1599005955.8,286047003.1,N
1599005975.6,286047003.4,N
1599005995.4,286047004.1,N
1599006015.3,286047001.6,N
1599006035.1,286047002.7,N
1599006055.8,286047002.6,N
1599006075.7,286047001.6,N
1599006095.5,286047001.6,N
1599006115.4,286047004.0,N
1599006135.2,286047003.3,N
1599006155.0,286047003.2,N
1599006155.9,286047003.2,N
1599006175.8,286047003.6,N
1599006195.6,286047003.1,N
1599006215.5,286047003.8,N
1599006235.3,286047001.8,N
1599006255.1,286047004.4,N
1599006275.9,286047003.7,N
1599006295.7,286047004.2,N
1599006315.5,286047004.3,N
1599006335.4,286047002.0,N
1599006355.2,286047004.0,Y
1599006375.1,286047002.7,P
1599006376.0,286047002.7,P
1599006395.8,286047002.4,P
1599006415.6,286046998.3,Y
1599006435.5,286046998.0,P
1599006455.3,286046995.0,N
1599006475.2,286046995.4,N
1599006495.9,286046995.5,N
1599006515.7,286046995.3,N
1599006535.6,286046995.3,N
1599006555.4,286046997.6,N
1599006575.2,286046995.3,N
1599006595.1,286046997.4,N
1599006596.0,286046997.4,N
1599006615.8,286046997.9,N
1599006635.7,286046995.6,N
1599006655.5,286046995.4,N
1599006675.3,286046995.7,N
1599006695.2,286046995.7,N
1599006715.0,286046995.6,N
1599006715.9,286046995.6,N
1599006735.8,286046997.1,N
1599006755.6,286046997.3,N
1599006775.4,286046995.6,N
1599006795.3,286046997.6,N
1599006815.1,286046996.8,N
1599006835.8,286046996.7,N
1599006855.7,286046998.8,N
1599006875.5,286046999.2,N
1599006895.4,286046999.4,N
1599006915.2,286046996.8,N
1599006935.0,286046997.8,N
1599006935.9,286046997.8,N
1599006955.8,286046998.0,N
1599006975.6,286046996.3,N
1599006995.5,286046993.7,Y
1599007015.3,286046998.9,P
1599007035.1,286047001.1,N
1599007055.9,286047000.1,N
1599007075.7,286047002.2,N
1599007095.5,286047001.6,N
1599007115.4,286046998.8,N
1599007135.2,286047001.0,N
1599007155.1,286047001.5,N
1599007156.0,286047001.5,N
1599007175.8,286047001.1,N
1599007195.6,286047000.3,N
1599007215.5,286047001.0,N
1599007235.3,286047000.2,N
1599007255.1,286047000.0,N
1599007275.9,286046998.8,N
1599007295.7,286046999.3,N
1599007315.6,286046998.6,N
1599007335.4,286046998.2,N
1599007355.2,286047001.6,N
1599007375.1,286047002.6,N
1599007376.0,286047002.6,N
1599007395.8,286047000.8,N
1599007415.6,286047002.8,N
1599007435.5,286047001.2,N
1599007455.3,286047001.7,N
1599007475.2,286046999.7,N
1599007495.9,286047000.6,N
1599007515.7,286046998.2,N
1599007535.6,286047001.0,N
1599007555.4,286047000.5,N
1599007575.2,286047000.0,N
1599007595.1,286047001.9,N
1599007596.0,286047001.9,N
1599007615.8,286047002.7,N
1599007635.7,286047003.2,N
1599007655.5,286047002.2,N
1599007675.3,286047001.6,N
1599007695.2,286047001.9,N
1599007715.0,286047002.8,N
1599007715.9,286047002.8,N
1599007735.8,286046999.9,N
1599007755.6,286046998.1,N
1599007775.4,286046998.3,N
1599007795.3,286046998.8,N
1599007815.1,286046999.4,N
1599007835.9,286046998.6,N
1599007855.7,286047000.9,N
1599007875.5,286047000.7,N
1599007895.4,286047000.2,N
1599007915.2,286046998.5,N
1599007935.0,286047000.4,N
1599007935.9,286047000.4,N
1599007955.8,286047011.9,Y
1599007975.6,286046998.2,P
1599007995.5,286046998.4,N
1599008015.3,286046998.3,N
1599008035.1,286046996.5,Y
1599008055.9,286046999.5,P
1599008075.7,286046998.9,P
1599008095.6,286047000.8,N
1599008115.4,286046998.2,N
1599008135.2,286047001.1,N
1599008155.1,286047000.4,N
1599008156.0,286047000.4,N
1599008175.8,286047000.4,N
1599008195.7,286047000.9,N
1599008215.5,286046998.1,N
1599008235.3,286046998.1,N
1599008255.2,286046996.5,Y
1599008275.0,286046997.0,P
1599008275.9,286046997.0,N
1599008295.7,286046998.3,N
1599008315.6,286046999.4,N
1599008335.4,286046999.2,N
1599008355.3,286046999.3,N
1599008375.1,286046999.1,N
1599008376.0,286046999.1,N
1599008395.8,286046998.8,N
